Theta_e
307 309 310 312 315 316 317 318 317 317 318 318 318 319 320 320 321 322 322 322 322 322 322 321 320 319 318 317 315 315 313 312 312 311 310 309 308 307 306 306 306 305 305 304 302 301 300 299 298 297 296 296 295 295 294 294 294 293 293 293 293 292
306 308 309 310 312 315 317 317 317 316 316 316 317 317 318 319 319 320 320 320 320 319 318 316 315 315 315 313 313 312 311 311 310 309 307 306 306 305 305 305 304 302 301 300 298 297 296 296 295 294 294 294 294 294 293 293 293 293 293 292 292 292
306 307 307 308 310 312 314 315 315 315 314 314 315 316 316 316 317 317 316 316 316 315 314 314 313 313 313 312 311 310 309 308 307 306 305 305 305 304 302 301 300 298 297 296 296 295 294 294 294 294 294 294 294 293 293 293 292 292 292 291 291 291
304 305 306 306 307 308 309 311 312 312 312 313 313 315 315 315 314 314 314 313 314 313 312 312 312 311 310 309 308 307 306 305 305 304 304 303 301 300 298 298 296 296 295 295 294 294 294 294 294 293 293 293 293 292 292 292 291 291 291 290 290 290
304 304 304 305 305 306 306 308 309 309 310 311 312 313 312 312 312 311 311 311 311 310 309 309 309 308 307 306 305 305 304 304 303 302 300 299 298 297 296 295 295 294 294 294 294 294 293 293 293 293 292 292 292 291 291 290 290 290 290 290 289 289
302 302 303 303 303 304 305 306 306 307 308 308 310 310 309 309 309 308 308 308 308 307 307 307 306 304 304 304 304 303 302 301 300 298 297 296 296 295 294 294 294 294 294 294 293 293 293 292 292 292 291 291 290 290 290 290 289 289 289 289 289 289
300 301 301 302 302 303 303 304 305 305 306 306 307 307 307 307 307 306 306 306 305 305 304 303 303 303 303 303 302 301 299 298 297 296 295 295 294 294 294 294 293 293 293 293 293 292 292 291 291 290 290 290 289 289 289 289 289 289 289 288 288 288
300 300 301 301 301 302 302 303 304 304 304 305 305 305 305 305 305 305 304 304 303 302 302 302 302 302 301 300 299 297 297 295 295 294 294 294 294 294 293 293 293 293 292 292 291 291 290 290 289 289 289 289 289 289 289 288 288 288 288 288 288 287
301 300 300 301 300 301 302 302 303 303 303 303 303 303 303 303 303 303 302 302 301 301 301 300 300 299 298 297 296 295 295 294 294 294 294 293 293 293 293 293 293 292 291 291 290 290 289 289 289 289 288 288 288 288 288 288 287 287 287 287 287 287
302 300 299 300 300 300 301 301 302 302 302 301 301 302 302 302 301 301 301 301 300 299 299 298 297 296 296 295 295 294 294 294 294 293 293 293 293 293 293 292 291 291 290 290 289 289 289 288 288 288 288 288 287 287 287 287 287 287 287 287 287 286
302 299 299 299 299 299 300 300 300 300 300 300 300 301 301 301 301 300 300 299 298 297 297 296 295 295 294 294 294 294 294 293 293 293 292 292 292 292 291 291 290 290 289 289 289 289 288 288 288 287 287 287 287 287 287 286 286 286 286 286 286 286
301 299 298 298 298 298 299 299 299 300 300 300 299 300 300 300 300 299 298 298 297 296 295 294 294 294 294 294 294 293 293 292 292 292 292 292 291 291 290 290 290 289 289 289 289 288 288 287 287 287 286 286 286 286 286 286 286 286 285 285 285 285
300 298 298 297 297 298 298 299 299 299 299 299 299 299 299 299 299 298 297 296 295 295 294 294 294 294 293 293 293 292 292 292 292 292 291 291 290 290 290 289 289 289 289 289 288 287 287 287 287 286 286 286 286 285 285 285 285 285 285 285 284 284
300 298 298 297 298 298 298 298 299 298 299 298 298 298 297 297 297 296 296 295 294 294 294 294 293 293 292 292 292 292 292 291 291 291 290 290 289 289 289 289 289 289 288 288 287 287 287 287 286 286 286 286 286 285 285 285 285 285 284 284 284 284
301 299 299 298 298 298 298 299 299 299 299 298 298 297 296 296 296 295 295 294 294 294 293 293 293 292 292 292 291 291 291 291 290 290 289 289 289 289 288 288 288 288 288 287 287 287 286 286 286 286 286 286 285 285 285 285 285 285 284 284 284 283
301 300 300 299 298 298 298 299 299 299 298 297 297 296 295 295 295 294 294 293 293 293 292 292 292 292 291 291 291 291 290 290 290 289 289 289 288 288 288 288 287 287 287 287 286 286 286 286 286 285 285 285 285 285 285 285 285 284 284 284 283 283
301 300 299 299 299 298 298 298 298 297 297 296 295 295 294 294 294 293 293 293 292 292 291 291 291 291 291 290 290 290 289 289 289 289 288 288 288 288 287 287 287 286 286 286 286 285 285 285 285 285 285 285 284 284 284 285 285 284 284 283 282 282
302 301 300 299 298 297 297 297 297 296 295 295 294 294 294 293 293 292 292 292 291 291 291 291 291 291 290 290 289 289 289 289 288 288 288 288 287 287 287 286 286 286 285 285 285 285 285 285 285 284 284 284 284 284 284 284 284 284 283 282 281 281
303 301 300 299 297 297 296 296 296 295 294 293 293 293 292 292 292 291 291 290 290 290 290 290 291 290 289 289 289 289 288 288 288 288 287 287 287 286 286 286 285 285 285 285 284 284 284 284 284 284 283 283 283 283 283 283 283 283 282 281 280 280
302 300 299 298 297 296 296 296 295 294 293 292 292 291 291 291 290 290 290 289 289 289 290 290 290 289 289 288 288 288 288 288 288 287 287 287 286 286 286 285 285 284 284 284 284 284 284 283 283 283 283 283 283 282 282 282 281 281 281 281 280 280
301 299 298 297 296 296 295 295 294 293 292 291 291 290 290 290 289 289 289 289 289 289 289 289 289 289 288 288 288 288 288 287 287 287 286 286 286 285 285 285 284 284 283 283 283 283 282 282 283 283 282 282 281 280 280 280 280 279 279 279 279 279
299 298 297 297 296 295 295 295 293 292 291 290 290 289 289 289 289 289 289 289 288 288 288 288 288 288 288 288 288 287 287 287 286 286 286 285 285 284 284 284 284 284 283 282 282 282 281 281 282 282 281 280 279 279 279 278 278 278 278 278 278 278
299 298 297 296 296 295 294 294 292 291 290 289 289 288 288 289 288 288 288 288 288 288 288 287 288 288 287 287 287 287 286 286 286 286 285 285 284 284 284 284 284 283 282 281 280 281 281 281 280 280 279 278 278 278 278 278 277 277 277 277 277 277
296 297 295 295 295 294 293 293 291 290 289 288 288 288 288 288 287 287 288 288 287 287 287 287 287 287 287 287 286 286 286 286 285 285 284 284 284 283 283 283 283 282 281 279 279 280 280 279 279 278 278 277 276 277 277 277 277 277 277 276 276 276
294 295 294 293 293 293 292 292 290 289 288 288 287 288 287 287 287 287 287 287 287 287 286 286 286 286 286 286 286 286 286 285 284 284 284 284 284 283 283 282 281 280 279 279 279 279 278 278 277 277 277 276 275 275 276 277 277 277 276 276 276 276
293 292 292 292 292 292 291 291 290 288 287 287 287 287 287 286 286 286 286 286 286 286 286 286 286 286 286 285 285 285 285 284 284 284 284 284 283 282 281 279 279 279 280 280 280 279 278 277 276 276 276 275 275 275 276 276 276 276 276 276 276 275
291 290 290 290 291 291 290 290 289 288 286 287 287 287 286 286 285 285 286 286 285 285 285 285 285 285 285 285 285 284 284 284 284 284 283 283 282 281 280 279 279 279 279 279 279 278 278 276 275 275 275 274 274 274 275 276 275 276 276 276 275 275
290 289 289 289 289 290 289 289 289 288 287 287 287 286 286 286 285 285 285 285 285 285 284 284 284 284 284 284 283 284 284 284 284 283 282 281 280 279 279 279 279 279 278 277 276 276 276 275 275 274 274 274 274 274 275 275 275 275 275 275 275 276
288 287 287 287 288 288 289 288 288 288 287 287 286 286 285 285 285 285 285 284 284 284 284 284 284 284 283 283 283 283 283 283 282 281 280 279 279 279 279 278 278 277 276 275 275 275 275 275 274 274 273 273 274 274 274 274 274 275 275 275 275 275
287 286 286 286 287 287 287 287 286 286 287 287 286 285 285 285 285 285 284 284 283 283 283 283 284 283 282 282 282 283 283 282 281 280 279 278 278 278 278 277 277 276 275 274 273 274 274 274 273 273 273 273 274 274 274 274 275 275 275 275 275 275
286 286 285 286 286 286 286 286 286 286 287 287 286 285 285 285 284 284 283 282 282 282 282 282 282 282 282 282 282 281 281 280 280 279 278 278 278 278 277 277 276 275 275 274 273 273 272 273 273 273 274 274 274 275 274 274 275 275 274 274 274 273
285 285 285 285 285 285 286 285 285 286 286 286 285 284 284 284 283 282 282 281 282 282 282 281 281 281 281 281 281 280 280 278 277 277 277 278 277 277 276 275 275 274 274 274 274 273 272 272 273 273 273 274 274 274 274 274 274 274 274 273 273 272
284 284 284 284 284 284 285 284 284 284 284 284 284 284 284 284 283 282 281 281 282 282 281 281 281 280 280 280 280 279 279 277 277 277 277 277 276 276 275 274 274 274 273 273 273 273 272 272 272 272 272 273 273 273 273 273 273 272 272 272 271 270
283 283 283 283 283 283 283 283 283 283 283 283 283 283 283 283 284 283 282 282 282 281 280 280 280 280 279 279 278 278 278 278 277 277 276 276 276 276 275 274 274 274 274 273 272 272 272 272 271 271 271 272 272 272 272 272 271 271 271 270 270 269
282 282 282 282 281 281 281 281 282 282 282 282 282 282 282 283 284 284 283 282 281 280 279 279 279 279 279 278 278 277 277 278 278 277 276 275 275 275 274 274 274 274 273 272 272 271 271 271 271 271 270 270 270 271 271 271 271 270 269 269 268 267
281 280 280 280 280 280 280 280 281 281 281 281 281 281 282 283 283 284 284 283 282 281 280 279 279 278 278 277 278 278 277 277 277 277 276 275 275 274 273 273 273 273 273 272 272 272 272 271 271 270 270 270 270 269 269 270 271 271 270 269 267 266
280 279 279 279 279 279 278 279 280 280 280 281 281 281 282 282 282 282 282 282 281 281 280 279 278 278 277 277 277 277 277 277 276 276 276 276 275 274 273 272 272 272 272 272 272 272 272 272 271 270 270 271 270 269 270 271 271 269 268 268 267 266
279 279 279 278 278 278 277 278 280 280 280 280 281 281 281 281 281 281 281 280 280 279 279 278 277 277 277 277 277 277 276 275 275 275 275 275 275 274 273 272 272 271 271 271 272 272 272 272 271 270 271 271 270 269 270 269 267 265 265 265 265 265
Wind_Speed
11 12 12 12 14 16 16 18 19 21 22 23 23 23 22 22 22 23 22 22 22 21 20 19 18 17 17 16 15 14 14 14 13 12 12 11 10 10 10 10 11 11 11 11 11 11 11 11 11 12 11 11 11 12 12 13 13 13 14 15 15 16
11 13 14 14 15 17 17 18 19 20 21 21 22 22 22 22 21 21 21 21 21 21 19 18 17 17 17 16 16 15 15 14 13 13 13 13 13 13 13 13 13 13 12 12 11 11 11 11 11 12 11 11 11 11 12 12 13 13 14 15 15 15
12 13 14 15 16 17 18 18 19 20 20 21 22 22 22 21 21 20 20 20 21 21 20 18 18 17 17 17 16 16 16 15 15 15 16 16 16 15 15 14 14 13 12 11 11 10 11 10 10 11 10 10 11 11 12 12 13 13 14 15 15 16
13 14 15 16 17 18 18 19 20 21 22 22 23 24 23 23 23 22 22 22 21 20 20 19 19 18 17 18 17 17 18 18 17 17 17 18 17 16 15 14 13 12 11 10 10 10 10 10 10 10 10 11 11 11 12 13 13 14 15 15 16 17
14 15 15 15 17 18 19 20 21 22 23 23 24 25 24 24 24 23 22 22 22 21 21 21 20 19 19 20 20 21 21 20 19 18 17 18 17 15 14 13 13 12 11 10 10 10 9 9 10 10 10 11 11 12 12 13 13 14 15 16 17 18
13 14 15 15 16 18 19 20 21 22 23 23 24 25 25 24 24 24 24 24 24 23 23 23 22 22 23 23 23 23 22 21 20 18 17 17 16 15 14 13 12 11 10 10 10 10 9 9 9 10 10 11 12 12 12 13 13 14 15 16 17 18
11 12 14 15 17 18 19 20 21 22 23 24 25 26 25 25 25 25 26 26 27 26 25 25 25 25 25 25 24 23 22 21 19 18 17 16 15 15 14 13 12 11 10 10 10 9 9 9 9 10 10 11 11 12 12 13 13 14 15 16 17 18
10 12 14 16 17 19 20 21 22 23 23 24 25 26 27 27 27 27 28 28 29 29 28 28 27 27 26 25 24 23 21 20 19 18 17 15 15 15 14 13 12 11 10 10 10 9 9 9 9 10 10 11 11 11 12 12 13 14 15 17 18 19
10 13 15 17 18 20 22 23 24 24 24 25 26 27 28 29 29 29 30 30 30 30 29 28 28 27 26 25 23 22 20 19 18 17 16 15 15 14 13 13 12 11 10 10 9 9 9 9 9 10 10 10 11 11 12 13 15 16 17 19 20 21
9 13 16 18 19 21 22 23 24 24 26 27 27 28 29 30 31 31 31 31 31 31 30 28 27 26 25 23 22 21 20 19 17 17 16 15 14 14 13 12 11 11 10 10 9 10 9 9 9 9 10 11 12 13 14 15 17 19 20 21 22 23
9 13 17 19 21 22 22 23 24 25 26 28 29 30 31 31 32 32 32 32 31 31 29 28 27 25 24 23 22 21 20 19 18 17 16 15 14 13 13 12 11 11 10 10 9 9 8 8 9 10 11 13 14 15 16 18 19 20 22 24 24 26
10 14 18 20 22 23 24 25 25 27 28 29 30 31 31 32 33 33 33 32 32 30 29 28 26 25 23 22 22 21 20 19 18 17 15 14 14 13 12 11 11 10 9 9 9 8 8 8 10 11 12 14 15 17 18 19 21 22 23 25 26 27
11 15 18 21 24 26 27 28 28 29 30 31 32 33 33 33 33 33 33 32 31 30 29 27 26 24 23 23 22 21 20 19 17 16 15 14 14 13 12 11 10 10 9 8 8 8 8 9 11 12 14 16 17 18 20 20 22 23 23 25 26 28
13 18 21 25 28 29 30 31 31 31 32 33 34 34 34 33 34 34 33 32 31 30 28 27 26 25 24 23 22 21 19 18 17 16 15 14 13 12 11 10 9 9 8 7 8 8 9 11 13 14 16 18 18 19 21 22 22 23 24 25 26 28
18 23 27 29 31 32 33 34 35 35 35 36 35 35 35 34 34 34 33 32 31 29 28 27 26 26 24 23 22 20 19 17 16 16 15 14 13 11 10 9 8 7 7 7 8 9 11 12 14 16 17 18 20 20 21 23 24 24 26 26 27 28
22 25 27 29 31 32 33 34 35 35 35 36 36 36 35 34 34 34 33 32 30 29 28 27 26 26 24 22 21 19 18 17 16 15 14 13 12 11 9 8 7 7 7 8 9 10 12 13 15 16 17 18 20 21 22 24 25 25 26 27 27 27
22 23 27 30 31 32 33 33 33 34 35 36 36 35 35 34 34 33 32 32 30 29 28 27 26 25 23 22 20 19 18 16 15 15 13 12 11 9 8 8 7 7 8 9 10 11 12 14 15 16 17 19 20 22 23 24 26 27 27 27 26 25
30 31 33 33 32 34 34 34 34 34 35 35 35 35 34 34 33 32 32 32 30 29 28 26 25 24 23 22 20 19 17 16 15 14 12 11 10 9 8 7 8 8 9 10 11 12 12 14 15 16 18 19 21 22 24 25 27 28 28 28 26 25
32 32 32 32 33 35 35 35 35 35 35 34 34 34 33 33 33 33 32 31 30 29 27 26 25 24 22 21 20 19 17 15 14 13 11 10 9 8 8 7 8 9 9 10 11 12 13 14 15 16 18 20 21 23 25 27 28 29 30 29 27 26
27 28 30 32 33 34 35 36 36 35 34 33 33 33 33 32 33 32 32 31 30 29 27 25 24 23 22 21 19 18 17 15 13 12 10 9 7 7 7 7 8 9 10 10 11 12 13 14 15 16 18 20 21 23 24 26 28 29 30 31 31 29
27 28 30 32 33 34 36 37 37 35 34 33 33 33 32 32 32 32 32 31 29 28 26 25 23 22 21 20 19 17 16 14 12 10 9 7 7 7 7 7 8 9 10 10 11 12 13 14 15 17 18 20 20 21 22 25 28 29 30 31 34 36
29 31 33 35 37 38 38 39 37 35 34 33 32 31 31 32 32 32 31 30 28 27 26 24 23 22 21 20 18 17 15 13 11 9 8 7 6 7 7 7 8 8 9 10 11 12 13 15 16 17 18 19 19 19 21 24 26 28 30 31 33 36
31 34 35 36 37 38 39 39 36 33 32 32 31 30 31 32 32 31 30 29 28 27 26 24 23 21 20 19 17 16 14 12 10 8 7 6 6 6 6 6 7 7 8 9 11 13 14 16 17 18 18 18 19 19 20 23 24 25 28 31 31 32
26 28 29 32 36 39 40 39 35 32 31 31 30 30 31 32 31 30 29 28 27 26 25 24 22 21 20 19 17 15 13 11 9 7 6 6 5 5 5 6 6 7 9 10 12 14 16 16 17 18 18 18 19 19 18 20 21 22 25 29 31 32
24 25 27 30 35 37 38 37 34 32 31 30 30 31 32 32 31 30 29 28 27 26 25 24 22 21 20 18 16 14 12 10 9 7 5 5 4 4 5 6 7 8 9 11 14 15 16 17 18 18 18 18 18 18 18 18 19 20 22 25 28 30
23 23 25 29 33 34 36 36 34 32 31 30 31 32 32 31 30 29 28 28 27 26 25 24 22 21 19 18 15 13 12 10 8 6 4 3 3 3 5 6 7 9 11 13 15 16 17 17 18 18 19 19 20 19 18 19 20 20 21 23 25 26
24 24 24 27 30 32 33 34 35 34 32 32 33 34 33 32 30 29 29 28 27 26 25 23 22 20 19 17 15 13 11 9 7 5 4 3 3 4 4 6 8 11 13 15 16 17 17 17 18 19 20 21 21 19 18 19 20 20 21 23 24 25
23 24 24 24 27 30 31 32 34 35 35 35 35 35 33 32 31 29 29 29 27 26 25 23 22 20 18 16 15 12 10 8 7 6 6 5 4 4 4 6 9 11 13 15 16 16 17 17 19 20 22 22 22 20 19 20 20 20 20 22 24 24
23 24 24 25 26 28 30 30 31 33 34 35 35 34 32 32 31 31 30 29 28 26 25 23 22 20 18 16 14 12 10 8 8 8 7 6 4 4 4 6 9 11 13 14 15 16 17 18 20 21 22 23 23 22 22 22 23 23 23 25 26 27
24 25 25 26 26 28 29 29 30 31 33 35 35 33 32 32 32 32 31 30 28 26 24 23 21 19 18 16 14 11 10 10 9 9 7 6 4 4 4 6 9 10 11 12 14 15 17 18 20 21 22 22 22 23 23 24 25 25 25 26 27 28
25 26 26 26 27 29 29 29 29 31 33 34 34 33 33 33 32 32 31 29 28 26 24 22 21 19 17 16 14 13 11 11 10 9 8 6 5 4 4 6 7 7 8 10 11 13 15 17 18 18 18 18 19 20 21 22 23 24 23 23 23 24
24 26 26 26 28 29 29 30 31 31 33 34 34 34 34 34 33 31 30 29 28 26 25 23 21 19 17 16 16 15 14 14 12 10 8 6 6 5 4 4 4 5 6 7 8 9 10 12 13 15 16 16 17 17 18 19 20 20 21 21 21 21
23 25 26 27 29 30 30 31 31 32 33 34 34 34 35 35 34 32 30 29 28 27 25 24 22 20 18 17 16 16 16 16 15 12 9 9 9 8 6 3 3 3 4 5 6 7 8 9 10 13 15 16 16 16 17 17 17 18 19 21 22 24
25 26 27 28 29 30 30 31 31 32 33 34 34 34 34 34 34 33 31 30 28 26 25 24 22 21 20 18 18 18 17 17 16 13 12 11 10 9 7 5 3 3 4 4 5 7 9 10 11 12 14 15 15 16 16 16 16 16 17 19 22 24
25 26 27 28 29 30 30 30 31 31 32 33 33 34 33 33 32 32 31 30 29 27 26 24 23 22 21 21 20 19 18 16 15 15 15 14 11 9 8 6 5 4 4 5 4 5 7 9 10 12 13 14 14 15 16 16 16 15 16 20 22 22
23 24 25 27 29 29 30 30 31 32 32 32 33 33 32 32 31 30 31 31 30 28 27 25 24 23 22 21 20 19 18 16 15 16 16 15 13 10 8 6 5 5 5 5 5 5 7 8 10 11 13 14 15 16 16 17 18 18 19 22 24 23
23 24 25 26 28 28 29 30 31 31 31 32 32 33 32 32 30 29 29 29 28 28 27 25 24 23 22 21 20 18 17 17 16 16 15 15 13 12 10 7 5 5 5 5 5 6 7 9 10 11 12 14 15 17 18 20 21 23 23 24 24 24
22 24 25 26 27 28 29 30 31 31 31 32 33 33 33 32 30 29 28 28 28 27 26 25 24 23 22 20 18 17 16 16 15 15 14 14 13 12 10 8 6 5 4 4 4 5 7 8 10 11 12 14 15 16 19 21 22 22 22 23 23 23
Wind_Direction
158 158 161 170 179 183 182 181 182 179 177 176 173 171 171 172 174 176 178 181 183 184 186 186 185 184 183 179 177 178 178 174 171 170 167 161 155 151 146 139 132 125 119 115 110 103 98 91 85 80 74 69 66 61 56 50 44 39 37 34 32 29
159 156 155 159 166 172 175 177 180 179 179 178 176 175 175 177 180 181 182 184 184 181 177 173 171 171 172 173 175 175 171 168 164 159 152 147 142 138 136 130 125 120 115 109 103 95 90 84 79 75 69 64 59 55 51 46 41 37 33 30 26 22
160 156 154 155 157 160 163 167 171 172 175 177 177 176 175 174 175 174 172 169 170 169 166 165 167 169 172 173 173 170 162 158 154 148 144 140 136 133 131 126 119 114 109 103 96 89 84 80 76 72 66 60 55 51 46 40 36 31 28 24 18 13
161 157 155 154 154 155 156 158 160 160 161 163 165 167 166 166 165 165 163 161 163 164 163 164 166 167 168 166 164 159 151 148 144 141 140 136 131 129 125 120 114 108 104 99 94 87 82 76 72 69 64 59 53 47 42 36 30 25 19 17 12 7
163 158 156 155 154 155 155 157 157 158 159 159 160 161 161 163 164 164 163 162 162 161 161 161 161 161 160 155 152 148 143 140 138 137 137 132 126 124 118 112 108 105 102 98 92 86 80 73 67 64 58 53 48 42 37 30 24 20 14 10 7 2
161 157 156 154 154 155 156 157 159 159 160 162 163 162 162 163 163 162 162 160 158 157 157 156 154 154 152 148 144 142 139 137 136 135 132 127 123 119 114 109 107 104 100 96 90 82 76 68 62 57 51 47 42 36 32 25 19 15 9 5 2 358
164 161 159 156 155 157 158 158 159 159 161 163 164 162 161 162 162 160 160 157 154 154 152 151 150 149 147 144 141 139 137 135 134 132 128 125 122 118 114 111 108 103 97 89 82 75 68 61 56 51 47 43 38 31 24 20 14 9 5 1 357 354
168 164 163 162 161 160 160 159 160 160 161 162 163 162 160 160 161 159 157 154 151 150 149 148 148 147 144 142 140 138 136 134 133 130 127 124 122 119 116 113 107 99 92 84 77 71 63 56 50 44 41 37 31 26 18 12 8 2 359 356 352 350
172 169 167 167 165 164 164 163 163 162 161 160 161 162 160 159 160 157 155 152 149 147 147 147 147 145 143 141 139 138 136 135 134 131 127 125 124 120 116 111 104 97 91 85 80 72 62 53 45 37 35 30 22 17 10 4 1 357 354 352 348 346
174 171 170 169 167 167 167 166 165 163 162 161 161 162 160 159 159 156 153 151 149 146 146 146 145 144 142 141 140 139 138 137 136 132 129 127 124 118 113 108 103 99 93 87 80 72 61 49 39 29 23 19 12 9 5 360 357 352 349 348 345 343
174 172 171 170 170 170 169 167 165 164 163 162 162 163 162 161 159 155 153 151 149 147 146 146 145 144 143 143 143 142 141 140 137 133 131 128 122 117 114 111 107 102 96 88 78 68 57 42 30 22 15 10 5 1 360 356 353 351 347 345 344 343
173 171 171 173 174 172 170 168 167 166 165 163 164 164 162 162 159 156 154 152 149 148 148 147 146 145 145 146 146 145 143 140 137 134 131 127 123 119 116 112 108 101 94 85 74 60 48 34 23 18 11 6 2 358 356 354 351 350 347 344 344 343
172 174 177 179 179 176 173 172 169 168 167 166 167 165 163 163 161 157 155 153 151 150 150 149 148 148 148 149 148 146 143 141 138 135 131 127 124 121 116 111 105 95 85 73 61 45 33 22 14 10 4 1 0 356 355 354 350 349 349 346 345 344
180 183 184 184 182 180 177 174 170 170 170 169 169 166 164 164 161 158 157 154 152 152 152 151 151 150 151 150 148 147 144 142 140 135 132 129 125 121 115 108 98 88 78 63 49 31 19 13 5 2 360 357 356 355 353 352 350 349 349 349 347 345
190 189 188 186 185 184 181 176 173 174 173 171 169 166 165 165 163 160 158 155 154 154 153 154 154 153 152 150 148 147 145 144 141 137 134 130 125 121 113 103 90 80 70 55 40 23 12 8 3 360 358 355 353 354 352 349 349 350 349 349 348 346
193 192 190 188 187 185 182 178 177 176 174 171 169 168 167 165 163 160 158 156 156 156 156 157 157 154 152 150 149 148 147 145 142 137 134 130 126 120 111 99 85 71 58 43 33 21 9 5 3 0 358 356 354 352 350 349 349 350 349 348 348 347
190 190 191 190 187 184 181 180 178 175 173 171 169 168 168 166 162 160 159 158 158 158 158 159 158 155 151 150 150 149 148 145 142 138 135 130 125 117 107 95 77 58 44 34 29 21 11 5 4 3 359 357 355 351 349 349 348 348 348 348 348 349
192 192 191 188 185 182 180 180 178 174 171 171 170 169 168 165 163 161 160 160 160 160 160 160 159 156 152 152 151 151 149 146 143 140 134 128 119 108 96 81 66 51 36 27 24 21 15 6 3 3 2 359 356 351 349 349 347 347 347 348 348 348
194 191 187 182 181 181 180 178 177 173 170 170 170 169 167 165 163 162 162 162 161 161 161 162 160 157 154 154 154 152 150 147 144 139 133 126 116 101 87 67 54 46 33 24 21 19 16 9 3 3 3 1 357 353 351 349 348 347 346 346 346 344
191 187 182 178 179 181 179 177 175 172 169 170 170 168 167 166 164 164 163 163 162 162 161 161 161 159 156 156 156 153 151 148 144 139 131 123 110 94 80 62 48 42 35 28 22 19 17 11 7 6 4 3 0 357 353 351 349 348 346 344 343 342
183 180 178 177 178 180 179 176 174 172 170 171 170 168 168 167 166 165 165 163 162 162 161 161 162 161 159 158 156 154 152 149 144 137 127 117 102 84 72 60 51 44 39 33 24 21 20 15 12 10 7 7 6 0 355 353 352 350 347 344 341 340
175 173 177 180 180 179 178 176 174 174 172 171 170 169 169 169 167 166 165 163 162 161 161 162 163 161 160 160 157 154 152 149 142 134 125 113 96 80 65 54 49 43 38 36 30 25 22 17 15 15 13 11 9 4 358 357 356 351 345 342 340 338
178 178 181 182 179 177 176 175 174 174 172 170 170 171 172 170 168 166 165 163 163 162 161 162 163 162 162 161 159 156 153 148 142 135 124 110 90 75 61 45 41 42 41 41 37 30 25 20 16 17 17 13 9 6 2 359 357 351 343 339 338 337
177 177 178 179 177 176 176 174 173 173 172 171 172 173 172 170 168 167 166 164 163 163 162 162 163 164 163 162 160 157 153 148 142 134 121 106 86 67 52 37 35 43 46 44 38 32 28 24 19 17 16 14 9 7 5 359 354 350 344 339 336 335
170 172 174 175 176 176 175 174 173 172 172 172 173 173 171 169 169 168 166 165 164 164 164 164 164 165 164 162 161 158 153 147 141 131 117 101 81 60 49 43 40 40 39 37 36 34 30 25 21 17 13 11 10 8 4 359 353 349 344 339 334 331
164 166 169 172 175 176 177 177 173 171 171 173 172 172 170 170 170 168 167 166 165 165 166 166 166 166 164 161 161 160 155 148 140 131 119 100 77 63 55 50 44 35 28 26 28 31 29 23 21 18 12 9 9 6 1 356 351 347 343 338 333 330
160 159 162 170 175 177 179 180 176 172 172 174 174 173 173 171 170 168 167 167 167 167 167 167 166 165 164 162 161 160 156 150 143 137 127 109 84 70 57 44 37 30 25 23 22 23 24 22 18 15 12 10 7 3 357 352 347 345 341 336 332 329
157 157 159 166 175 179 181 184 182 178 175 175 175 175 175 172 170 168 168 168 168 169 168 167 166 165 164 162 159 158 158 154 150 144 131 117 101 82 55 36 32 30 27 24 19 17 18 18 17 14 11 8 4 358 353 349 345 343 340 335 332 329
158 161 162 166 175 180 181 184 185 183 179 177 176 176 175 173 171 170 170 170 170 170 169 169 169 166 163 161 159 160 161 156 151 146 137 130 124 98 60 39 32 30 27 21 15 13 13 14 16 14 8 2 358 355 352 350 347 344 342 339 336 332
165 167 168 170 175 180 183 185 185 185 183 180 179 177 175 174 174 173 173 172 171 170 171 171 170 167 164 162 161 163 162 157 154 152 146 141 131 103 66 47 37 31 25 19 12 8 8 10 12 11 3 356 354 352 351 349 347 344 342 340 336 331
173 173 173 175 177 180 184 186 186 187 186 183 181 179 176 175 175 174 173 173 172 171 171 171 169 168 166 164 163 162 161 159 157 155 151 144 127 102 69 49 41 32 26 25 18 7 1 2 4 1 354 351 352 352 349 347 345 341 338 338 335 331
180 178 178 179 181 182 185 187 188 189 188 184 182 181 179 177 174 173 173 173 173 174 173 172 170 168 168 167 165 164 161 158 156 155 154 149 135 119 97 68 54 42 29 28 28 19 5 356 352 349 350 352 354 353 351 347 343 341 340 341 341 343
185 184 184 184 184 185 187 188 189 189 188 185 183 182 182 180 176 174 174 175 176 176 175 174 172 170 169 169 168 168 166 161 158 158 157 156 152 142 133 126 108 85 58 32 22 20 14 4 356 354 355 357 357 357 355 350 347 349 349 347 350 356
189 190 190 188 187 188 188 190 191 190 188 187 185 184 185 184 181 179 178 178 179 178 177 177 175 172 171 169 168 170 170 167 163 159 157 161 163 157 150 150 149 122 94 65 30 12 7 7 7 4 1 360 1 2 360 355 357 0 358 356 1 4
193 194 193 191 191 191 191 192 193 191 189 188 188 187 187 188 188 186 183 181 180 180 179 179 178 176 175 173 171 171 171 170 167 162 161 163 164 160 154 152 151 137 110 87 59 26 14 13 12 9 5 4 6 6 1 359 6 13 9 8 11 9
197 196 196 196 195 194 195 195 194 192 190 190 190 190 190 191 193 192 189 187 185 184 183 183 182 181 178 176 175 173 170 168 167 165 162 162 161 160 158 153 146 136 117 91 62 41 36 31 22 14 9 9 11 8 1 360 8 15 16 17 16 10
200 199 199 200 199 198 199 200 198 195 193 192 192 192 193 194 195 193 191 190 189 188 187 186 185 184 182 179 177 176 173 170 167 164 160 157 156 158 158 153 146 132 110 88 63 47 44 40 30 20 15 15 14 7 1 3 9 12 12 14 14 7
203 203 204 203 203 204 204 204 202 197 195 195 195 195 196 196 195 194 192 191 191 191 190 188 187 186 185 182 179 176 174 172 168 163 158 154 154 156 156 151 144 129 107 84 64 53 48 43 35 24 19 20 18 10 7 11 14 11 7 6 6 1